Location: Pinon Hills
(34.4429°N, 117.6403°W)
Time: 04:13:58
(UTC-08:00)

Amateur Radio Satellites - All Passes

Search period start: 21 November 2017 03:43
Search period end: 22 November 2017 03:43
Location: Pinon Hills, 34.4429°N, 117.6403°W

Satellite Date Start Highest point End Downlink Frequencies (MHz)
Time Altitude Azimuth
nSIGHT-1 21 Nov 04:02:46 04:05:51 45° 226° (SW) 04:08:53 .
ITAMSAT 1 21 Nov 04:04:49 04:09:50 51° 288° (WNW) 04:14:50 435.822/435.867
CUBESAT XI-V 21 Nov 04:06:24 04:10:24 30° 263° (W) 04:14:27 437.345
KKS-1 21 Nov 04:10:18 04:14:43 64° 75° (ENE) 04:19:10 437.445
BEESAT 2 21 Nov 04:31:19 04:32:43 12° 312° (NW) 04:34:10 435.950
STARS 21 Nov 04:34:58 04:39:10 45° 73° (ENE) 04:43:24 437.465
DOVE 4 21 Nov 04:44:59 04:50:08 72° 101° (ESE) 04:54:59 437.250
ISS 21 Nov 04:47:06 04:49:28 19° 231° (SW) 04:51:50 437.550
XW-2D 21 Nov 04:48:26 04:49:08 10° 92° (E) 04:49:51 145.860 - 145.880
RS-15 21 Nov 04:57:20 05:08:19 50° 251° (WSW) 05:18:47 29.354- 29.394
AO-7 21 Nov 04:58:16 05:05:05 29° 300° (WNW) 05:11:55 .
XW-2B 21 Nov 05:01:44 05:04:04 16° 94° (E) 05:06:24 145.730 - 145.750
YUBILEINY 21 Nov 05:14:49 05:23:31 77° 94° (E) 05:32:19 435.215
NUDT-PHONESAT 21 Nov 05:16:52 05:19:13 16° 95° (E) 05:21:34 437.300
SO-50 21 Nov 05:19:28 05:21:56 14° 47° (NE) 05:24:25 436.795
XW-2C 21 Nov 05:26:20 05:29:49 33° 98° (E) 05:33:18 145.795 - 145.815
LilacSat-2 21 Nov 05:28:10 05:31:46 39° 98° (E) 05:35:24 437.200
CUTE-I 21 Nov 05:36:27 05:41:23 37° 98° (E) 05:46:17 437.470
XW-2F 21 Nov 05:36:56 05:40:34 43° 99° (E) 05:44:12 145.980 - 146.000
SEEDS 21 Nov 06:02:08 06:03:19 11° 92° (E) 06:04:31 437.485
KAITUO 1B 21 Nov 06:04:45 06:08:31 81° 101° (ESE) 06:12:18 145.475/437.950
STARS 21 Nov 06:13:33 06:15:40 13° 267° (W) 06:17:48 437.465
XW-2D 21 Nov 06:19:52 06:23:26 40° 286° (WNW) 06:27:01 145.860 - 145.880
FO-29 21 Nov 06:20:29 06:24:57 19° 60° (ENE) 06:29:43 435.910
DOVE 4 21 Nov 06:25:19 06:27:01 12° 297° (WNW) 06:28:41 437.250
CUBEBUG 2 21 Nov 06:25:51 06:28:58 20° 95° (E) 06:32:02 437.445
XW-2B 21 Nov 06:34:58 06:38:13 27° 287° (WNW) 06:41:29 145.730 - 145.750
STRAND 1 21 Nov 06:37:00 06:42:09 89° 254° (WSW) 06:47:20 437.568
XW-2A 21 Nov 06:39:48 06:41:00 11° 94° (E) 06:42:13 145.665 - 145.685
NUDT-PHONESAT 21 Nov 06:49:57 06:53:00 25° 288° (WNW) 06:56:05 437.300
HO-68 21 Nov 06:53:33 07:00:45 73° 104° (ESE) 07:07:52 435.675
SO-50 21 Nov 06:58:10 07:02:48 66° 243° (WSW) 07:07:29 436.795
XW-2C 21 Nov 07:01:48 07:03:39 13° 291° (WNW) 07:05:29 145.795 - 145.815
LilacSat-2 21 Nov 07:04:14 07:05:39 12° 292° (WNW) 07:07:03 437.200
CUTE 1.7 + AOD 2 21 Nov 07:04:36 07:08:51 67° 284° (WNW) 07:13:06 437.475
ZACube-1 21 Nov 07:12:49 07:15:53 20° 95° (E) 07:18:57 437.345
XW-2F 21 Nov 07:13:34 07:14:14 10° 293° (WNW) 07:14:54 145.980 - 146.000
YUBILEINY 21 Nov 07:15:22 07:21:11 19° 292° (WNW) 07:27:05 435.215
CUTE-I 21 Nov 07:16:58 07:21:10 24° 293° (WNW) 07:25:21 437.470
UWE-3 21 Nov 07:21:49 07:25:53 53° 100° (E) 07:29:56 435.000/436.395/437.385
SEEDS 21 Nov 07:35:07 07:39:13 48° 285° (WNW) 07:43:18 437.485
AAUSAT CUBESAT 2 21 Nov 07:41:34 07:45:47 79° 103° (ESE) 07:49:57 437.432
PCSat 21 Nov 07:45:41 07:46:49 11° 46° (NE) 07:47:57 145.827
UNISAT 6 21 Nov 07:59:56 08:03:12 20° 69° (ENE) 08:06:24 437.425
FALCONSAT 3 21 Nov 08:00:41 08:03:12 18° 150° (SSE) 08:05:43 435.103
CUBEBUG 2 21 Nov 08:02:07 08:05:31 25° 289° (WNW) 08:08:52 437.445
FO-29 21 Nov 08:02:39 08:09:02 71° 259° (W) 08:16:19 435.910
AO-73 21 Nov 08:02:54 08:07:02 75° 101° (E) 08:11:13 145.935
TIGRISAT 21 Nov 08:04:14 08:07:31 20° 69° (ENE) 08:10:45 435.000
XW-2A 21 Nov 08:10:49 08:13:43 27° 286° (WNW) 08:16:36 145.665 - 145.685
Oscar 11 21 Nov 08:19:12 08:23:32 76° 102° (ESE) 08:27:51 .
HO-68 21 Nov 08:42:56 08:47:42 19° 300° (WNW) 08:52:27 435.675
ZACube-1 21 Nov 08:48:39 08:52:06 26° 288° (WNW) 08:55:34 437.345
PRISM 21 Nov 08:56:45 09:00:10 26° 71° (ENE) 09:03:37 437.425
UWE-3 21 Nov 09:01:37 09:01:49 10° 294° (WNW) 09:02:01 435.000/436.395/437.385
EO-88 21 Nov 09:14:10 09:17:16 26° 97° (E) 09:20:20 145.990 - 145.960
Max Valier Satellite 21 Nov 09:15:49 09:19:18 41° 99° (E) 09:22:48 145.860
PCSat 21 Nov 09:25:38 09:31:04 78° 63° (ENE) 09:36:28 145.827
UNISAT 6 21 Nov 09:35:29 09:39:38 33° 262° (W) 09:43:44 437.425
FALCONSAT 3 21 Nov 09:38:17 09:41:55 63° 164° (SSE) 09:45:35 435.103
TIGRISAT 21 Nov 09:39:49 09:43:56 33° 262° (W) 09:48:01 435.000
DELFI C3 21 Nov 09:46:08 09:50:00 48° 285° (WNW) 09:53:49 145.870
QB50P2 21 Nov 10:01:06 10:03:43 16° 68° (ENE) 10:06:18 145.880/145.840
PRISM 21 Nov 10:32:21 10:35:22 20° 265° (W) 10:38:25 437.425
AIST 2D 21 Nov 10:47:54 10:51:07 37° 261° (W) 10:54:22 435.315
EO-88 21 Nov 10:48:27 10:50:39 15° 290° (WNW) 10:52:49 145.990 - 145.960
DUCHIFAT 1 21 Nov 10:48:51 10:52:46 39° 73° (ENE) 10:56:42 145.980
EO-79 21 Nov 10:56:09 11:00:21 66° 76° (ENE) 11:04:34 145.935-145.965
NANOSAT C BR1 21 Nov 10:59:16 11:03:26 63° 75° (ENE) 11:07:37 145.865
ESTCUBE 1 21 Nov 11:08:58 11:13:28 62° 100° (E) 11:17:57 437.505/2401.250
LO-87 21 Nov 11:10:52 11:14:24 73° 283° (WNW) 11:17:53 145.935 - 145.965
POLYITAN 1 21 Nov 11:11:30 11:15:45 80° 259° (W) 11:20:00 437.675
PCSat 21 Nov 11:12:31 11:13:42 11° 258° (WSW) 11:14:53 145.827
BEESAT 2 21 Nov 11:12:57 11:14:54 13° 49° (NE) 11:16:49 435.950
FALCONSAT 3 21 Nov 11:17:20 11:21:02 74° 359° (N) 11:24:43 435.103
VELOX 1 21 Nov 11:30:12 11:32:24 13° 93° (E) 11:34:36 145.980
QB50P2 21 Nov 11:35:15 11:39:10 35° 262° (W) 11:43:04 145.880/145.840
BEESAT 3 21 Nov 11:36:48 11:40:44 88° 54° (NE) 11:44:35 437.485
BUGSAT 1 21 Nov 11:40:27 11:44:17 35° 73° (ENE) 11:48:06 437.445
Oscar 19 21 Nov 11:47:39 11:51:49 26° 68° (ENE) 11:55:59 437.125/150
Gurwin Techsat 1B 21 Nov 12:14:33 12:19:17 34° 70° (ENE) 12:24:02 435.225
AO-85 21 Nov 12:14:44 12:18:50 28° 55° (NE) 12:23:10 145.980
SPROUT 21 Nov 12:23:34 12:27:49 79° 283° (WNW) 12:32:02 437.525
DUCHIFAT 1 21 Nov 12:26:23 12:28:32 14° 266° (W) 12:30:41 145.980
ESTCUBE 1 21 Nov 12:48:30 12:49:41 11° 295° (WNW) 12:50:52 437.505/2401.250
BEESAT 2 21 Nov 12:49:00 12:52:53 50° 245° (WSW) 12:56:42 435.950
M-CUBED/EXP-1 PRIME 21 Nov 12:52:13 12:54:49 20° 64° (ENE) 12:57:34 437.505
50 SAT 21 Nov 12:53:40 12:56:22 24° 97° (E) 12:59:02 437.505
O/OREOS (USA 219) 21 Nov 12:54:11 12:58:47 86° 104° (ESE) 13:03:24 437.305
UKube-1 21 Nov 12:55:46 12:58:25 16° 94° (E) 13:01:03 .
FALCONSAT 3 21 Nov 12:56:29 13:00:10 75° 194° (SSW) 13:03:52 435.103
JUGNU 21 Nov 13:03:43 13:04:47 10° 164° (SSE) 13:05:52 437.505
VELOX 1 21 Nov 13:04:47 13:09:01 44° 287° (WNW) 13:13:13 145.980
BUGSAT 1 21 Nov 13:17:16 13:19:41 15° 266° (W) 13:22:06 437.445
Oscar 19 21 Nov 13:26:28 13:30:57 31° 263° (W) 13:35:28 437.125/150
ITAMSAT 1 21 Nov 13:41:37 13:45:06 18° 65° (ENE) 13:48:36 435.822/435.867
NO-84 21 Nov 13:43:20 13:46:31 34° 125° (SE) 13:49:59 435.350 FM
DX 1 21 Nov 13:48:58 13:53:20 67° 285° (WNW) 13:57:39 434.975-435.025
Gurwin Techsat 1B 21 Nov 13:54:55 13:59:12 25° 264° (W) 14:03:32 435.225
AO-85 21 Nov 13:54:55 13:59:13 31° 247° (WSW) 14:03:44 145.980
AO-7 21 Nov 13:59:33 14:07:34 58° 68° (ENE) 14:15:38 .
BEESAT 21 Nov 14:00:23 14:01:15 10° 92° (E) 14:02:06 436.000
ITUPSAT 1 21 Nov 14:08:58 14:11:18 14° 93° (E) 14:13:38 437.325
MOZHAYETS 4 21 Nov 14:16:36 14:20:16 23° 96° (E) 14:23:55
M-CUBED/EXP-1 PRIME 21 Nov 14:26:27 14:29:06 20° 261° (W) 14:31:52 437.505
50 SAT 21 Nov 14:26:55 14:28:10 12° 291° (WNW) 14:29:24 437.505
UKube-1 21 Nov 14:30:33 14:34:30 35° 288° (WNW) 14:38:26 .
FALCONSAT 3 21 Nov 14:36:01 14:38:59 23° 207° (SSW) 14:41:56 435.103
JUGNU 21 Nov 14:49:18 14:53:03 17° 174° (S) 14:56:48 437.505
ITAMSAT 1 21 Nov 15:19:07 15:24:08 47° 260° (W) 15:29:11 435.822/435.867
NO-84 21 Nov 15:21:00 15:23:56 22° 324° (NW) 15:27:01 435.350 FM
YUBILEINY 21 Nov 15:30:08 15:37:49 32° 74° (ENE) 15:45:25 435.215
BEESAT 21 Nov 15:34:40 15:39:21 63° 285° (WNW) 15:44:02 436.000
ITUPSAT 1 21 Nov 15:44:45 15:49:21 50° 287° (WNW) 15:53:55 437.325
DOVE 4 21 Nov 15:45:52 15:50:38 48° 73° (ENE) 15:55:38 437.250
MOZHAYETS 4 21 Nov 15:53:30 15:57:19 27° 290° (WNW) 16:01:10
AO-7 21 Nov 15:53:56 16:00:36 27° 263° (W) 16:07:22 .
CUBESAT XI-V 21 Nov 16:05:30 16:10:13 86° 103° (ESE) 16:14:55 437.345
KKS-1 21 Nov 16:06:01 16:08:46 16° 94° (E) 16:11:27 437.445
XW-2C 21 Nov 16:07:08 16:07:21 10° 67° (ENE) 16:07:34 145.795 - 145.815
LilacSat-2 21 Nov 16:08:27 16:09:54 12° 68° (ENE) 16:11:20 437.200
XW-2F 21 Nov 16:15:54 16:17:32 12° 68° (ENE) 16:19:09 145.980 - 146.000
STARS 21 Nov 16:30:48 16:31:23 10° 92° (E) 16:31:58 437.465
SRMSAT 21 Nov 16:35:27 16:38:13 13° 167° (SSE) 16:40:59 437.500
JUGNU 21 Nov 16:37:27 16:41:21 18° 184° (S) 16:45:15 437.505
KAITUO 1B 21 Nov 16:41:39 16:44:24 20° 71° (ENE) 16:47:10 145.475/437.950
CUTE-I 21 Nov 16:54:36 16:59:37 43° 72° (ENE) 17:04:41 437.470
XW-2D 21 Nov 16:56:58 17:00:34 50° 76° (ENE) 17:04:12 145.860 - 145.880
RS-15 21 Nov 17:02:44 17:13:37 39° 106° (ESE) 17:24:30 29.354- 29.394
XW-2B 21 Nov 17:11:41 17:15:24 79° 77° (ENE) 17:19:09 145.730 - 145.750
HO-68 21 Nov 17:18:25 17:24:53 37° 66° (ENE) 17:31:20 435.675
CUBEBUG 2 21 Nov 17:21:25 17:23:34 13° 67° (ENE) 17:25:40 437.445
NUDT-PHONESAT 21 Nov 17:24:21 17:27:58 77° 77° (ENE) 17:31:37 437.300
DOVE 4 21 Nov 17:25:27 17:28:32 16° 269° (W) 17:31:44 437.250
YUBILEINY 21 Nov 17:26:24 17:34:45 49° 271° (W) 17:43:05 435.215
XW-2C 21 Nov 17:37:32 17:41:05 42° 261° (W) 17:44:39 145.795 - 145.815
LilacSat-2 21 Nov 17:40:19 17:43:47 36° 262° (W) 17:47:16 437.200
KKS-1 21 Nov 17:41:16 17:45:23 37° 288° (WNW) 17:49:29 437.445
XW-2F 21 Nov 17:47:55 17:51:16 33° 262° (W) 17:54:40 145.980 - 146.000
CUTE 1.7 + AOD 2 21 Nov 17:53:18 17:57:21 50° 75° (ENE) 18:01:25 437.475
STARS 21 Nov 18:03:42 18:08:00 55° 286° (WNW) 18:12:15 437.465
ZACube-1 21 Nov 18:07:10 18:08:16 11° 67° (ENE) 18:09:22 437.345
UWE-3 21 Nov 18:15:11 18:19:01 28° 72° (ENE) 18:22:46 435.000/436.395/437.385
KAITUO 1B 21 Nov 18:15:34 18:18:15 19° 265° (W) 18:20:57 145.475/437.950
SEEDS 21 Nov 18:22:33 18:26:40 68° 75° (ENE) 18:30:49 437.485
SRMSAT 21 Nov 18:22:36 18:26:40 19° 177° (S) 18:30:43 437.500
JUGNU 21 Nov 18:27:20 18:29:37 12° 194° (SSW) 18:31:53 437.505
AAUSAT CUBESAT 2 21 Nov 18:28:04 18:31:41 30° 72° (ENE) 18:35:19 437.432
CUTE-I 21 Nov 18:35:56 18:39:47 20° 265° (W) 18:43:39 437.470
XW-2A 21 Nov 18:37:41 18:40:50 43° 75° (ENE) 18:44:00 145.665 - 145.685
STRAND 1 21 Nov 18:51:20 18:56:09 41° 99° (E) 19:00:56 437.568
AO-73 21 Nov 18:54:41 18:58:37 35° 73° (ENE) 19:02:29 145.935
CUBEBUG 2 21 Nov 18:55:14 18:59:44 51° 260° (W) 19:04:08 437.445
nSIGHT-1 21 Nov 19:01:42 19:04:23 25° 130° (SE) 19:07:05 .
HO-68 21 Nov 19:05:59 19:12:28 37° 262° (W) 19:19:02 435.675
Oscar 11 21 Nov 19:10:23 19:14:17 35° 73° (ENE) 19:18:11 .
RS-15 21 Nov 19:13:33 19:25:35 58° 305° (NW) 19:37:40 29.354- 29.394
FO-29 21 Nov 19:17:12 19:23:15 24° 92° (E) 19:28:56 435.910
CUTE 1.7 + AOD 2 21 Nov 19:32:57 19:33:25 10° 268° (W) 19:33:54 437.475
ZACube-1 21 Nov 19:39:48 19:44:04 55° 260° (W) 19:48:15 437.345
ISS 21 Nov 19:47:09 19:50:24 71° 135° (SE) 19:53:40 437.550
UWE-3 21 Nov 19:52:02 19:55:24 21° 265° (W) 19:58:43 435.000/436.395/437.385
Max Valier Satellite 21 Nov 19:53:10 19:54:20 11° 68° (ENE) 19:55:29 145.860
AAUSAT CUBESAT 2 21 Nov 20:04:28 20:07:08 17° 266° (W) 20:09:49 437.432
SRMSAT 21 Nov 20:11:22 20:15:08 17° 187° (S) 20:18:55 437.500
NO-84 21 Nov 20:20:52 20:21:29 10° 27° (NNE) 20:22:07 435.350 FM
DELFI C3 21 Nov 20:27:10 20:30:59 52° 76° (ENE) 20:34:53 145.870
STRAND 1 21 Nov 20:31:22 20:34:59 20° 293° (WNW) 20:38:35 437.568
AO-73 21 Nov 20:32:17 20:34:53 16° 266° (W) 20:37:27 145.935
nSIGHT-1 21 Nov 20:37:51 20:40:33 24° 325° (NW) 20:43:16 .
Oscar 11 21 Nov 20:47:51 20:50:29 16° 266° (W) 20:53:05 .
FO-29 21 Nov 21:00:58 21:08:37 59° 288° (WNW) 21:15:43 435.910
SO-50 21 Nov 21:08:45 21:13:13 86° 303° (WNW) 21:17:43 436.795
EO-88 21 Nov 21:20:45 21:24:18 62° 258° (WSW) 21:27:54 145.990 - 145.960
Max Valier Satellite 21 Nov 21:24:23 21:27:45 35° 262° (W) 21:31:08 145.860
ISS 21 Nov 21:25:28 21:27:11 13° 331° (NNW) 21:28:56 437.550
UNISAT 6 21 Nov 21:30:08 21:34:23 65° 101° (E) 21:38:36 437.425
RS-15 21 Nov 21:33:35 21:41:32 19° 333° (NNW) 21:49:26 29.354- 29.394
TIGRISAT 21 Nov 21:34:17 21:38:30 66° 100° (E) 21:42:43 435.000
LO-87 21 Nov 21:43:25 21:46:19 23° 72° (ENE) 21:49:13 145.935 - 145.965
NO-84 21 Nov 21:55:31 21:59:41 51° 44° (NE) 22:03:48 435.350 FM
ESTCUBE 1 21 Nov 22:04:56 22:08:59 35° 72° (ENE) 22:13:04 437.505/2401.250
PRISM 21 Nov 22:15:37 22:19:46 71° 102° (ESE) 22:23:53 437.425
AIST 2D 21 Nov 22:16:32 22:18:59 18° 95° (E) 22:21:26 435.315
PCSat 21 Nov 22:22:41 22:25:57 16° 104° (ESE) 22:29:13 145.827
EO-79 21 Nov 22:45:52 22:47:59 14° 93° (E) 22:50:04 145.935-145.965
NANOSAT C BR1 21 Nov 22:48:47 22:50:39 13° 93° (E) 22:52:30 145.865
POLYITAN 1 21 Nov 23:00:29 23:03:38 21° 96° (E) 23:06:47 437.675
O/OREOS (USA 219) 21 Nov 23:07:52 23:12:26 90° 124° (ESE) 23:16:55 437.305
SPROUT 21 Nov 23:12:51 23:16:57 47° 74° (ENE) 23:21:05 437.525
LO-87 21 Nov 23:17:19 23:19:39 16° 265° (W) 23:21:59 145.935 - 145.965
QB50P2 21 Nov 23:23:09 23:27:11 45° 99° (E) 23:31:11 145.880/145.840
NO-84 21 Nov 23:33:58 23:36:41 17° 239° (WSW) 23:39:21 435.350 FM
ESTCUBE 1 21 Nov 23:42:56 23:45:51 17° 266° (W) 23:48:46 437.505/2401.250
AIST 2D 21 Nov 23:49:23 23:52:02 20° 288° (WNW) 23:54:40 435.315
RS-15 21 Nov 23:56:14 00:01:29 13° 11° (N) 00:06:38 29.354- 29.394
VELOX 1 21 Nov 23:57:42 00:02:07 81° 259° (W) 00:06:35 145.980
PCSat 22 Nov 00:03:31 00:08:49 55° 299° (WNW) 00:14:08 145.827
Oscar 19 22 Nov 00:04:38 00:06:13 11° 92° (E) 00:07:46 437.125/150
DUCHIFAT 1 22 Nov 00:11:18 00:15:26 66° 285° (WNW) 00:19:33 145.980
EO-79 22 Nov 00:19:57 00:23:50 38° 287° (WNW) 00:27:43 145.935-145.965
NANOSAT C BR1 22 Nov 00:22:34 00:26:29 40° 287° (WNW) 00:30:23 145.865
Gurwin Techsat 1B 22 Nov 00:35:08 00:38:40 18° 94° (E) 00:42:09 435.225
POLYITAN 1 22 Nov 00:35:54 00:39:20 25° 289° (WNW) 00:42:47 437.675
DX 1 22 Nov 00:40:27 00:44:45 64° 75° (ENE) 00:49:05 434.975-435.025
50 SAT 22 Nov 00:48:13 00:51:26 79° 258° (WSW) 00:54:41 437.505
SPROUT 22 Nov 00:51:29 00:53:01 12° 267° (W) 00:54:35 437.525
BUGSAT 1 22 Nov 01:00:22 01:04:23 79° 283° (WNW) 01:08:23 437.445
QB50P2 22 Nov 01:00:44 01:02:31 12° 293° (WNW) 01:04:18 145.880/145.840
ITUPSAT 1 22 Nov 01:13:24 01:15:00 12° 64° (ENE) 01:16:36 437.325
MOZHAYETS 4 22 Nov 01:15:55 01:18:37 16° 67° (ENE) 01:21:19
UKube-1 22 Nov 01:20:37 01:24:54 70° 258° (WSW) 01:29:13 .
BEESAT 3 22 Nov 01:22:40 01:26:14 33° 113° (ESE) 01:29:51 437.485
Oscar 19 22 Nov 01:40:46 01:45:54 68° 285° (WNW) 01:51:02 437.125/150
M-CUBED/EXP-1 PRIME 22 Nov 02:06:17 02:10:25 32° 102° (ESE) 02:14:34 437.505
AO-7 22 Nov 02:06:23 02:12:31 22° 95° (E) 02:18:38 .
RS-15 22 Nov 02:08:45 02:19:19 35° 45° (NE) 02:29:20 29.354- 29.394
Gurwin Techsat 1B 22 Nov 02:13:42 02:18:47 47° 288° (WNW) 02:23:51 435.225
ISS 22 Nov 02:18:24 02:20:44 18° 32° (NNE) 02:23:06 437.550
AO-85 22 Nov 02:27:42 02:29:54 15° 109° (ESE) 02:32:07 145.980
BEESAT 2 22 Nov 02:36:00 02:39:56 64° 116° (ESE) 02:43:56 435.950
BEESAT 22 Nov 02:37:03 02:41:49 83° 257° (WSW) 02:46:36 436.000
ITUPSAT 1 22 Nov 02:47:28 02:52:13 65° 258° (WSW) 02:56:58 437.325
MOZHAYETS 4 22 Nov 02:51:03 02:55:22 42° 261° (W) 02:59:42
BEESAT 3 22 Nov 03:01:03 03:03:50 18° 309° (NW) 03:06:37 437.485
KKS-1 22 Nov 03:03:01 03:03:30 10° 64° (ENE) 03:03:58 437.445
CUBESAT XI-V 22 Nov 03:04:59 03:09:26 54° 74° (ENE) 03:13:56 437.345
nSIGHT-1 22 Nov 03:06:50 03:10:01 68° 43° (NE) 03:13:10 .
